User: anonymous
Location: Unspecified
(0.0000°N, 0.0000°E)
Time: 23:42:07
(UTC+02:00)
Language:

ARIANE 5 DEB (SYLDA) - Orbit

View from above orbital plane
View from above orbital plane
View from above satellite
View from above satellite

Ground track
Ground track

The orbit data is extracted from the following two-line orbital elements,

1 32770U 08018D   14203.29414185  .01901193 -12655-5  43209-2 0  7852
2 32770 001.4437 332.8249 4129030 243.7939 049.2136 07.39814804 72892
Epoch (UTC): 22 July 2014 07:03:33
Eccentricity: 0.4129030
inclination: 1.4437°
perigee height: 153 km
apogee height: 9341 km
right ascension of ascending node: 332.8249°
argument of perigee: 243.7939°
revolutions per day: 7.39814804
mean anomaly at epoch: 49.2136°
orbit number at epoch: 7289

The dashed part of the orbit path shows where the satellite is in the earth's shadow,  

DLR